Location: Anciles
(42.5833°N, 0.5167°E)
Time: 06:37:00
(UTC+00:00)

CZ-4 R/B - Pass Details

Date: 10 December 2019
Orbit: 533 x 597 km, 97.7° (Epoch: 27 January)

Event Time Altitude Azimuth Distance (km) Brightness Sun altitude
Rises 18:39:47 0° 180° (S) 2,713 5.0 -24.1°
Reaches altitude 10° 18:41:59 10° 187° (S) 1,815 4.1 -24.5°
Maximum altitude 18:45:44 45° 261° (W) 749 2.3 -25.1°
Drops below altitude 10° 18:49:29 10° 335° (NNW) 1,804 4.1 -25.8°
Sets 18:51:40 0° 341° (NNW) 2,695 5.0 -26.2°
